Location: Thompson
(55.7500°N, 97.8670°W)
Time: 08:44:43
(UTC-06:00)

Amateur Radio Satellites - All Passes

Search period start: 23 January 2017 08:14
Search period end: 24 January 2017 08:14
Location: Thompson, 55.7500°N, 97.8670°W

Satellite Date Start Highest point End Downlink Frequencies (MHz)
Time Altitude Azimuth
ANTELSAT 23 Jan 08:20:45 08:24:08 23° 58° (ENE) 08:27:33 437.575/2403.000
BRITE-PL 23 Jan 08:22:34 08:24:00 11° 319° (NW) 08:25:26 437.365/2234.400
CUTE 1.7 + AOD 2 23 Jan 08:25:26 08:29:45 73° 102° (ESE) 08:34:03 437.475
NOAA 15 23 Jan 08:25:51 08:30:41 36° 301° (WNW) 08:35:30 137.62
Cubesat XI-IV 23 Jan 08:28:12 08:33:03 36° 301° (WNW) 08:37:54 437.490
LilacSat-2 23 Jan 08:30:03 08:32:43 18° 303° (WNW) 08:35:24 437.200
PCSat 23 Jan 08:30:15 08:35:44 83° 46° (NE) 08:41:11 145.827
DOVE 4 23 Jan 08:31:48 08:35:07 23° 302° (WNW) 08:38:23 437.250
CUBEBUG 2 23 Jan 08:32:45 08:36:52 42° 98° (E) 08:41:06 437.445
JAS-2 23 Jan 08:39:37 08:44:10 24° 47° (NE) 08:49:10 435.910
FUNcube-1 23 Jan 08:41:16 08:44:46 23° 91° (E) 08:48:19 145.935
UWE-3 23 Jan 08:54:24 08:58:36 45° 98° (E) 09:02:54 435.000/436.395/437.385
CANX-2 23 Jan 08:55:29 08:59:43 56° 291° (WNW) 09:03:56 2200.000
NOAA 18 23 Jan 08:58:04 09:03:06 38° 301° (WNW) 09:08:05 137.9125
COMPASS 1 23 Jan 08:58:55 09:03:11 75° 105° (ESE) 09:07:22 437.405
STRAND 1 23 Jan 08:58:59 09:00:04 11° 280° (W) 09:01:08 437.568
SEEDS 23 Jan 08:59:43 09:04:01 79° 288° (WNW) 09:08:16 437.485
SO-50 23 Jan 09:03:56 09:08:39 86° 321° (NW) 09:13:17 436.795
ZACube-1 23 Jan 09:05:56 09:10:02 38° 97° (E) 09:14:13 437.345
AAUSAT CUBESAT 2 23 Jan 09:06:54 09:11:07 71° 103° (ESE) 09:15:17 437.432
RS-15 23 Jan 09:08:20 09:19:56 50° 245° (WSW) 09:31:11 29.354- 29.394
POPSAT HIP 1 23 Jan 09:10:29 09:11:51 11° 48° (NE) 09:13:13 437.405
GONETS M04 23 Jan 09:11:53 09:18:36 25° 286° (WNW) 09:25:19
DUCHIFAT 1 23 Jan 09:17:10 09:18:33 11° 48° (NE) 09:19:56 145.980
AO-7 23 Jan 09:19:27 09:24:08 17° 351° (N) 09:28:49 29.400- 29.500
NANOSAT C BR1 23 Jan 09:23:36 09:25:42 14° 51° (NE) 09:27:47 145.865
CUTE-I 23 Jan 09:24:41 09:28:10 18° 313° (NW) 09:31:40 437.470
UNISAT 6 23 Jan 09:27:47 09:32:02 79° 73° (ENE) 09:36:22 437.425
HO-68 23 Jan 09:31:11 09:38:17 64° 297° (WNW) 09:45:20 435.675
Cosmos 2491 23 Jan 09:32:34 09:36:50 14° 25° (NNE) 09:41:05 435.465 / 435.565
Oscar 11 23 Jan 09:36:18 09:40:38 59° 101° (E) 09:44:57 145.826/435.025
CINEMA 3 23 Jan 09:37:12 09:40:19 21° 303° (WNW) 09:43:29 145.822/145.860
TIGRISAT 23 Jan 09:40:08 09:44:23 87° 257° (WSW) 09:48:42 435.000
PRISM 23 Jan 09:41:57 09:45:37 29° 265° (W) 09:49:19 437.425
O/OREOS (USA 219) 23 Jan 09:48:45 09:51:02 14° 339° (NNW) 09:53:19 437.305
DELFI C3 23 Jan 09:55:42 09:59:25 36° 97° (E) 10:03:07 145.870
ANTELSAT 23 Jan 09:56:19 10:00:32 60° 258° (WSW) 10:04:48 437.575/2403.000
CUTE 1.7 + AOD 2 23 Jan 10:01:59 10:05:11 21° 303° (WNW) 10:08:21 437.475
NOAA 15 23 Jan 10:07:49 10:09:06 11° 323° (NW) 10:10:23 137.62
CUBEBUG 2 23 Jan 10:09:36 10:13:26 32° 297° (WNW) 10:17:22 437.445
Cubesat XI-IV 23 Jan 10:10:30 10:11:46 11° 323° (NW) 10:13:02 437.490
PCSat 23 Jan 10:14:14 10:18:37 25° 248° (WSW) 10:22:59 145.827
Oscar 19 23 Jan 10:14:53 10:15:52 10° 38° (NE) 10:16:49 437.125/150
QB50P1 23 Jan 10:15:49 10:19:36 33° 63° (ENE) 10:23:24 145.935-145.965
FUNcube-1 23 Jan 10:17:03 10:21:21 59° 290° (WNW) 10:25:45 145.935
POLYITAN 1 23 Jan 10:20:57 10:24:48 37° 64° (ENE) 10:28:41 437.675
QB50P2 23 Jan 10:22:14 10:26:09 40° 65° (ENE) 10:30:06 145.880/145.840
JAS-2 23 Jan 10:22:49 10:28:26 86° 70° (ENE) 10:34:50 435.910
HUMSAT D 23 Jan 10:24:04 10:28:09 41° 98° (E) 10:32:14 437.325/437.525
UWE-3 23 Jan 10:31:09 10:34:57 30° 298° (WNW) 10:38:51 435.000/436.395/437.385
CANX-2 23 Jan 10:33:03 10:34:44 12° 311° (NW) 10:36:24 2200.000
ESTCUBE 1 23 Jan 10:35:12 10:36:34 11° 82° (E) 10:37:55 437.505/2401.250
COMPASS 1 23 Jan 10:35:14 10:38:17 20° 304° (WNW) 10:41:19 437.405
SEEDS 23 Jan 10:36:34 10:39:04 15° 307° (NW) 10:41:34 437.485
NOAA 18 23 Jan 10:40:31 10:42:25 12° 324° (NW) 10:44:20 137.9125
ZACube-1 23 Jan 10:42:20 10:46:20 35° 296° (WNW) 10:50:23 437.345
POPSAT HIP 1 23 Jan 10:42:41 10:46:47 54° 68° (ENE) 10:50:54 437.405
AAUSAT CUBESAT 2 23 Jan 10:43:06 10:46:11 20° 303° (WNW) 10:49:16 437.432
SO-50 23 Jan 10:45:23 10:49:38 34° 342° (NNW) 10:53:50 436.795
DUCHIFAT 1 23 Jan 10:49:19 10:53:24 55° 69° (ENE) 10:57:30 145.980
BY70-1 23 Jan 10:53:22 10:55:47 19° 91° (E) 10:58:06 436.1900
Gurwin Techsat 1B 23 Jan 10:53:45 10:55:54 12° 40° (NE) 10:58:03 435.225
NANOSAT C BR1 23 Jan 10:56:33 11:00:43 69° 70° (ENE) 11:04:53 145.865
UNISAT 6 23 Jan 11:06:38 11:09:22 16° 273° (W) 11:12:06 437.425
AO-7 23 Jan 11:08:41 11:13:57 19° 18° (NNE) 11:19:11 29.400- 29.500
CUBEBUG 1 23 Jan 11:09:33 11:11:45 14° 85° (E) 11:13:56 437.445
BUGSAT 1 23 Jan 11:10:50 11:14:34 38° 65° (ENE) 11:18:18 437.445
CUSAT 1 23 Jan 11:11:13 11:16:37 19° 39° (NE) 11:21:59 437.405
Oscar 11 23 Jan 11:12:57 11:16:29 24° 302° (WNW) 11:20:01 145.826/435.025
HO-68 23 Jan 11:19:33 11:24:51 23° 321° (NW) 11:30:08 435.675
TIGRISAT 23 Jan 11:19:36 11:21:48 14° 275° (W) 11:24:00 435.000
RS-15 23 Jan 11:23:18 11:29:02 15° 271° (W) 11:34:43 29.354- 29.394
Cosmos 2491 23 Jan 11:29:23 11:37:16 35° 56° (NE) 11:45:06 435.465 / 435.565
DELFI C3 23 Jan 11:30:37 11:34:13 32° 296° (WNW) 11:37:46 145.870
O/OREOS (USA 219) 23 Jan 11:31:47 11:32:30 10° 5° (N) 11:33:13 437.305
AISAT 23 Jan 11:34:25 11:37:06 16° 87° (E) 11:39:44 437.250
Oscar 19 23 Jan 11:49:08 11:53:51 36° 60° (ENE) 11:58:35 437.125/150
YUBILEINY 23 Jan 11:51:10 11:54:15 12° 61° (ENE) 11:57:19 435.215
QB50P1 23 Jan 11:51:27 11:55:21 37° 263° (W) 11:59:18 145.935-145.965
FUNcube-1 23 Jan 11:54:54 11:56:49 13° 310° (NW) 11:58:43 145.935
POLYITAN 1 23 Jan 11:56:50 12:00:39 34° 264° (W) 12:04:30 437.675
QB50P2 23 Jan 11:58:18 12:02:03 31° 265° (W) 12:05:51 145.880/145.840
HUMSAT D 23 Jan 11:59:52 12:03:42 32° 297° (WNW) 12:07:32 437.325/437.525
VELOX 1 23 Jan 12:06:53 12:10:40 27° 94° (E) 12:14:26 145.980
ESTCUBE 1 23 Jan 12:09:45 12:14:18 65° 103° (ESE) 12:18:48 437.505/2401.250
JAS-2 23 Jan 12:10:16 12:14:33 22° 276° (W) 12:19:12 435.910
SPROUT 23 Jan 12:10:44 12:14:13 24° 92° (E) 12:17:40 437.525
POPSAT HIP 1 23 Jan 12:19:32 12:22:53 23° 268° (W) 12:26:15 437.405
UKube-1 23 Jan 12:20:59 12:23:36 16° 88° (E) 12:26:14 .
BY70-1 23 Jan 12:23:04 12:26:15 42° 292° (WNW) 12:29:14 436.1900
50 SAT 23 Jan 12:23:35 12:26:41 27° 95° (E) 12:29:44 437.505
DUCHIFAT 1 23 Jan 12:26:07 12:29:24 22° 268° (W) 12:32:43 145.980
SO-50 23 Jan 12:27:12 12:31:12 28° 6° (N) 12:35:08 436.795
DX 1 23 Jan 12:28:02 12:31:31 23° 92° (E) 12:34:57 434.975-435.025
Gurwin Techsat 1B 23 Jan 12:29:39 12:34:39 43° 62° (ENE) 12:39:40 435.225
DANDE 23 Jan 12:33:44 12:39:30 23° 48° (NE) 12:45:49 436.750
NANOSAT C BR1 23 Jan 12:33:58 12:36:54 18° 271° (W) 12:39:51 145.865
AIST 1 23 Jan 12:39:20 12:41:14 13° 80° (E) 12:43:07
ITAMSAT 1 23 Jan 12:41:00 12:44:29 19° 48° (NE) 12:47:59 435.822/435.867
CUBEBUG 1 23 Jan 12:44:23 12:48:46 83° 102° (ESE) 12:53:05 437.445
BUGSAT 1 23 Jan 12:46:26 12:50:01 30° 264° (W) 12:53:38 437.445
Cosmos 2504 23 Jan 12:52:53 12:56:58 15° 68° (ENE) 13:00:56 435.465 / 435.565
CUSAT 1 23 Jan 12:52:54 13:00:37 49° 63° (ENE) 13:08:00 437.405
AO-7 23 Jan 12:57:08 13:04:33 37° 44° (NE) 13:11:58 29.400- 29.500
HO-68 23 Jan 13:08:11 13:10:09 11° 346° (NNW) 13:12:06 435.675
AO-85 23 Jan 13:08:44 13:11:48 18° 117° (ESE) 13:14:45 145.980
AISAT 23 Jan 13:09:46 13:14:12 87° 287° (WNW) 13:18:35 437.250
O/OREOS (USA 219) 23 Jan 13:10:37 13:13:47 18° 31° (NNE) 13:16:57 437.305
Cosmos 2491 23 Jan 13:26:20 13:35:09 82° 262° (W) 13:43:58 435.465 / 435.565
TISAT 1 23 Jan 13:26:45 13:30:05 22° 92° (E) 13:33:24 437.305
Oscar 19 23 Jan 13:28:03 13:33:06 49° 261° (W) 13:38:09 437.125/150
YUBILEINY 23 Jan 13:40:25 13:48:37 45° 86° (E) 13:56:51 435.215
VELOX 1 23 Jan 13:43:06 13:47:22 49° 294° (WNW) 13:51:36 145.980
SPROUT 23 Jan 13:46:16 13:50:26 54° 292° (WNW) 13:54:35 437.525
ESTCUBE 1 23 Jan 13:47:07 13:50:46 24° 303° (WNW) 13:54:24 437.505/2401.250
UKube-1 23 Jan 13:55:55 14:00:16 85° 286° (WNW) 14:04:34 .
50 SAT 23 Jan 13:56:40 13:59:57 34° 295° (WNW) 14:03:12 437.505
DX 1 23 Jan 14:03:46 14:08:03 58° 292° (WNW) 14:12:19 434.975-435.025
SO-50 23 Jan 14:08:06 14:12:34 48° 30° (NNE) 14:16:56 436.795
BEESAT 23 Jan 14:08:22 14:11:19 16° 86° (E) 14:14:15 436.000
Gurwin Techsat 1B 23 Jan 14:09:40 14:14:40 41° 263° (W) 14:19:43 435.225
SWISSCUBE 23 Jan 14:10:09 14:13:26 18° 88° (E) 14:16:44 437.505
AIST 1 23 Jan 14:13:44 14:18:06 80° 99° (E) 14:22:27
DANDE 23 Jan 14:16:06 14:23:38 64° 70° (ENE) 14:31:58 436.750
ITAMSAT 1 23 Jan 14:18:02 14:23:11 73° 70° (ENE) 14:28:23 435.822/435.867
CUBEBUG 1 23 Jan 14:21:32 14:24:33 19° 306° (NW) 14:27:33 437.445
CUSAT 1 23 Jan 14:35:01 14:42:48 58° 266° (W) 14:50:09 437.405
Cosmos 2504 23 Jan 14:40:31 14:48:40 55° 91° (E) 14:56:17 435.465 / 435.565
BRITE-PL 23 Jan 14:44:07 14:48:19 22° 53° (NE) 14:52:23 437.365/2234.400
AISAT 23 Jan 14:47:12 14:50:04 17° 308° (NW) 14:52:57 437.250
AO-85 23 Jan 14:47:12 14:51:43 83° 136° (SE) 14:55:56 145.980
AO-7 23 Jan 14:48:16 14:56:41 85° 248° (WSW) 15:05:08 29.400- 29.500
O/OREOS (USA 219) 23 Jan 14:49:37 14:54:06 62° 54° (NE) 14:58:35 437.305
HO-68 23 Jan 14:53:01 14:54:53 11° 13° (NNE) 14:56:45 435.675
NOAA 15 23 Jan 14:59:46 15:00:53 11° 37° (NE) 15:02:00 137.62
TISAT 1 23 Jan 15:01:56 15:06:02 55° 292° (WNW) 15:10:07 437.305
Cubesat XI-IV 23 Jan 15:03:18 15:04:24 11° 37° (NE) 15:05:30 437.490
MOZHAYETS 4 23 Jan 15:10:09 15:13:37 20° 89° (E) 15:17:04
ITUPSAT 1 23 Jan 15:12:45 15:17:26 48° 100° (E) 15:22:05 437.325
VELOX 1 23 Jan 15:21:33 15:22:53 11° 314° (NW) 15:24:12 145.980
SPROUT 23 Jan 15:24:06 15:25:29 11° 312° (NW) 15:26:54 437.525
Cosmos 2491 23 Jan 15:24:07 15:30:46 25° 286° (WNW) 15:37:26 435.465 / 435.565
UKube-1 23 Jan 15:32:57 15:35:43 17° 308° (NW) 15:38:28 .
NOAA 18 23 Jan 15:34:47 15:36:57 12° 38° (NE) 15:39:07 137.9125
BEESAT 3 23 Jan 15:35:37 15:38:11 17° 116° (ESE) 15:40:46 437.485
YUBILEINY 23 Jan 15:36:32 15:45:15 60° 290° (WNW) 15:54:03 435.215
HORYU 2 23 Jan 15:39:46 15:43:20 24° 57° (ENE) 15:46:55 437.375
DX 1 23 Jan 15:41:32 15:43:25 13° 313° (NW) 15:45:19 434.975-435.025
BEESAT 23 Jan 15:45:01 15:49:51 86° 105° (ESE) 15:54:39 436.000
SWISSCUBE 23 Jan 15:47:02 15:51:53 85° 288° (WNW) 15:56:42 437.505
SO-50 23 Jan 15:48:43 15:53:05 47° 232° (SW) 15:57:24 436.795
AIST 1 23 Jan 15:53:18 15:56:18 18° 301° (WNW) 15:59:16
CUTE-I 23 Jan 15:55:17 15:59:07 21° 49° (NE) 16:02:57 437.470
DANDE 23 Jan 15:59:06 16:06:15 44° 269° (W) 16:13:59 436.750
ITAMSAT 1 23 Jan 15:59:08 16:03:13 23° 270° (W) 16:07:20 435.822/435.867
CUBESAT XI-V 23 Jan 16:06:00 16:08:24 14° 84° (E) 16:10:48 437.345
GOMX 1 23 Jan 16:07:22 16:12:06 37° 63° (ENE) 16:16:35 467.674
STARS 23 Jan 16:09:10 16:10:53 12° 85° (E) 16:12:35 437.465
LilacSat-2 23 Jan 16:11:22 16:13:45 16° 56° (NE) 16:16:09 437.200
CUSAT 1 23 Jan 16:18:28 16:23:11 17° 288° (WNW) 16:27:47 437.405
BRITE-PL 23 Jan 16:20:29 16:26:11 85° 73° (ENE) 16:31:39 437.365/2234.400
BEESAT 2 23 Jan 16:27:23 16:30:33 23° 120° (ESE) 16:33:47 435.950
M-CUBED/EXP-1 PRIME 23 Jan 16:28:15 16:30:46 19° 99° (E) 16:33:12 437.505
AO-85 23 Jan 16:28:35 16:32:31 32° 338° (NNW) 16:36:16 145.980
DOVE 4 23 Jan 16:29:18 16:33:10 26° 60° (ENE) 16:36:53 437.250
O/OREOS (USA 219) 23 Jan 16:29:32 16:33:11 24° 254° (WSW) 16:36:50 437.305
Cosmos 2504 23 Jan 16:34:11 16:42:16 48° 294° (WNW) 16:49:51 435.465 / 435.565
NOAA 15 23 Jan 16:34:30 16:39:18 35° 59° (ENE) 16:44:07 137.62
HO-68 23 Jan 16:34:55 16:40:09 22° 39° (NE) 16:45:23 435.675
Cubesat XI-IV 23 Jan 16:38:18 16:43:06 36° 59° (ENE) 16:47:56 437.490
TISAT 1 23 Jan 16:39:26 16:40:50 11° 312° (NW) 16:42:15 437.305
AO-7 23 Jan 16:43:52 16:50:40 27° 271° (W) 16:57:31 29.400- 29.500
MOZHAYETS 4 23 Jan 16:46:38 16:51:18 73° 288° (WNW) 16:55:56
ITUPSAT 1 23 Jan 16:50:51 16:55:09 34° 300° (WNW) 16:59:28 437.325
KKS-1 23 Jan 17:00:29 17:04:54 59° 102° (ESE) 17:09:16 437.445
AUBIESAT-1 23 Jan 17:01:25 17:04:33 33° 104° (ESE) 17:07:34 437.475
NOAA 18 23 Jan 17:11:14 17:16:20 40° 59° (ENE) 17:21:25 137.9125
BEESAT 3 23 Jan 17:11:20 17:15:16 87° 138° (SE) 17:19:16 437.485
HORYU 2 23 Jan 17:15:12 17:19:35 62° 257° (WSW) 17:24:00 437.375
BEESAT 23 Jan 17:23:33 17:27:06 21° 307° (NW) 17:30:39 436.000
SWISSCUBE 23 Jan 17:25:42 17:29:04 19° 309° (NW) 17:32:25 437.505
CINEMA 3 23 Jan 17:32:14 17:35:40 24° 60° (ENE) 17:39:03 145.822/145.860
CUTE-I 23 Jan 17:33:10 17:38:29 81° 71° (ENE) 17:43:50 437.470
YUBILEINY 23 Jan 17:37:51 17:44:20 22° 318° (NW) 17:50:52 435.215
CUBESAT XI-V 23 Jan 17:41:53 17:46:38 77° 104° (ESE) 17:51:18 437.345
STARS 23 Jan 17:43:39 17:48:03 73° 104° (ESE) 17:52:25 437.465
LilacSat-2 23 Jan 17:43:46 17:47:33 80° 254° (WSW) 17:51:25 437.200
DANDE 23 Jan 17:44:25 17:47:19 12° 290° (WNW) 17:50:19 436.750
GOMX 1 23 Jan 17:45:05 17:50:09 46° 262° (W) 17:54:56 467.674
CUTE 1.7 + AOD 2 23 Jan 17:50:29 17:53:49 22° 58° (ENE) 17:57:10 437.475
BRITE-PL 23 Jan 18:00:57 18:05:15 22° 273° (W) 18:09:28 437.365/2234.400
M-CUBED/EXP-1 PRIME 23 Jan 18:02:15 18:05:33 45° 299° (WNW) 18:08:42 437.505
CUBEBUG 2 23 Jan 18:03:44 18:06:12 15° 53° (NE) 18:08:39 437.445
BEESAT 2 23 Jan 18:04:01 18:08:00 72° 322° (NW) 18:12:03 435.950
DOVE 4 23 Jan 18:05:53 18:10:38 61° 258° (WSW) 18:15:08 437.250
AO-85 23 Jan 18:10:33 18:13:57 23° 2° (N) 18:17:13 145.980
NOAA 15 23 Jan 18:13:46 18:18:57 52° 260° (W) 18:24:11 137.62
Cubesat XI-IV 23 Jan 18:17:52 18:23:03 52° 259° (W) 18:28:17 437.490
CANX-2 23 Jan 18:19:37 18:23:37 41° 66° (ENE) 18:27:40 2200.000
HO-68 23 Jan 18:19:37 18:26:41 62° 62° (ENE) 18:33:46 435.675
COMPASS 1 23 Jan 18:22:16 18:25:30 22° 58° (ENE) 18:28:46 437.405
SEEDS 23 Jan 18:23:22 18:27:03 29° 62° (ENE) 18:30:47 437.485
UWE-3 23 Jan 18:24:17 18:26:51 16° 53° (NE) 18:29:27 435.000/436.395/437.385
MOZHAYETS 4 23 Jan 18:24:55 18:27:45 16° 309° (NW) 18:30:34
AAUSAT CUBESAT 2 23 Jan 18:29:52 18:33:01 21° 57° (ENE) 18:36:11 437.432
GONETS M04 23 Jan 18:30:07 18:36:56 27° 75° (ENE) 18:43:49
Cosmos 2504 23 Jan 18:33:01 18:37:57 17° 321° (NW) 18:42:42 435.465 / 435.565
ZACube-1 23 Jan 18:35:12 18:37:23 14° 51° (NE) 18:39:35 437.345
AUBIESAT-1 23 Jan 18:36:01 18:38:57 27° 305° (NW) 18:41:48 437.475
KKS-1 23 Jan 18:37:32 18:41:11 25° 302° (WNW) 18:44:49 437.445
Cosmos 2499 23 Jan 18:44:21 18:51:23 34° 84° (E) 18:58:00 435.465 / 435.565
BEESAT 3 23 Jan 18:49:47 18:53:19 30° 339° (NNW) 18:56:53 437.485
NOAA 18 23 Jan 18:51:42 18:56:59 47° 260° (W) 19:02:17 137.9125
HORYU 2 23 Jan 18:56:31 18:57:05 10° 277° (W) 18:57:37 437.375
AIST 2 23 Jan 18:57:36 19:00:41 20° 118° (ESE) 19:03:49 435.215
Oscar 11 23 Jan 19:03:27 19:06:40 21° 56° (NE) 19:09:55 145.826/435.025
CINEMA 3 23 Jan 19:08:22 19:12:35 55° 259° (W) 19:16:43 145.822/145.860
CUTE-I 23 Jan 19:15:11 19:19:12 21° 272° (W) 19:23:14 437.470
DELFI C3 23 Jan 19:16:37 19:17:56 11° 50° (NE) 19:19:14 145.870
STRAND 1 23 Jan 19:17:26 19:21:58 30° 93° (E) 19:26:28 437.568
CUBESAT XI-V 23 Jan 19:19:57 19:23:33 22° 305° (NW) 19:27:07 437.345
STARS 23 Jan 19:20:43 19:24:00 21° 305° (NW) 19:27:17 437.465
LilacSat-2 23 Jan 19:21:33 19:22:33 11° 276° (W) 19:23:34 437.200
CUTE 1.7 + AOD 2 23 Jan 19:25:04 19:29:19 64° 259° (WSW) 19:33:36 437.475
CUBEBUG 2 23 Jan 19:38:05 19:42:13 84° 74° (ENE) 19:46:26 437.445
BEESAT 2 23 Jan 19:42:54 19:46:23 27° 343° (NNW) 19:49:53 435.950
YUBILEINY 23 Jan 19:43:34 19:45:51 11° 352° (N) 19:48:07 435.215
FUNcube-1 23 Jan 19:43:47 19:47:41 41° 66° (ENE) 19:51:41 145.935
DOVE 4 23 Jan 19:48:13 19:49:13 11° 278° (W) 19:50:13 437.250
HUMSAT D 23 Jan 19:49:08 19:51:22 14° 51° (NE) 19:53:36 437.325/437.525
AO-85 23 Jan 19:51:29 19:55:19 37° 26° (NNE) 19:58:59 145.980
CANX-2 23 Jan 19:55:46 19:59:36 31° 266° (W) 20:03:28 2200.000
COMPASS 1 23 Jan 19:56:31 20:00:42 64° 259° (WSW) 20:04:55 437.405
SEEDS 23 Jan 19:58:33 20:02:38 44° 262° (W) 20:06:45 437.485
UWE-3 23 Jan 19:58:36 20:02:45 88° 70° (ENE) 20:06:59 435.000/436.395/437.385
NOAA 15 23 Jan 19:59:09 20:00:00 10° 281° (W) 20:00:51 137.62
AAUSAT CUBESAT 2 23 Jan 20:03:56 20:08:07 68° 258° (WSW) 20:12:19 437.432
Cubesat XI-IV 23 Jan 20:03:59 20:04:26 10° 281° (W) 20:04:54 437.490
HO-68 23 Jan 20:08:05 20:14:46 40° 264° (W) 20:21:31 435.675
ZACube-1 23 Jan 20:08:50 20:12:58 72° 72° (ENE) 20:17:11 437.345
GONETS M04 23 Jan 20:23:52 20:32:37 86° 101° (ESE) 20:41:29
BEESAT 3 23 Jan 20:28:47 20:31:57 22° 2° (N) 20:35:09 437.485
AIST 2 23 Jan 20:34:31 20:38:42 84° 321° (NW) 20:42:57 435.215
Cosmos 2499 23 Jan 20:35:58 20:44:05 71° 286° (WNW) 20:51:38 435.465 / 435.565
Oscar 11 23 Jan 20:38:03 20:42:23 73° 256° (WSW) 20:46:46 145.826/435.025
DELFI C3 23 Jan 20:47:59 20:51:56 58° 70° (ENE) 20:55:55 145.870
STRAND 1 23 Jan 20:56:25 21:01:28 56° 294° (WNW) 21:06:30 437.568
CUTE 1.7 + AOD 2 23 Jan 21:05:30 21:06:03 10° 278° (W) 21:06:37 437.475
UNISAT 6 23 Jan 21:14:01 21:14:54 10° 82° (E) 21:15:48 437.425
BY70-1 23 Jan 21:14:28 21:16:43 17° 59° (ENE) 21:19:01 436.1900
PRISM 23 Jan 21:15:31 21:18:52 23° 93° (E) 21:22:10 437.425
CUBEBUG 2 23 Jan 21:17:08 21:19:30 15° 274° (W) 21:21:52 437.445
FUNcube-1 23 Jan 21:20:26 21:24:05 29° 266° (W) 21:27:49 145.935
BEESAT 2 23 Jan 21:21:57 21:25:14 23° 7° (N) 21:28:32 435.950
HUMSAT D 23 Jan 21:22:08 21:26:16 73° 73° (ENE) 21:30:30 437.325/437.525
JAS-2 23 Jan 21:24:54 21:27:31 12° 75° (ENE) 21:30:11 435.910
TIGRISAT 23 Jan 21:25:15 21:27:12 13° 84° (E) 21:29:10 435.000
AO-85 23 Jan 21:31:58 21:35:54 56° 229° (SW) 21:39:42 145.980
RS-15 23 Jan 21:33:59 21:40:56 18° 92° (E) 21:47:58 29.354- 29.394
COMPASS 1 23 Jan 21:36:52 21:37:08 10° 278° (W) 21:37:24 437.405
VELOX 1 23 Jan 21:37:31 21:39:38 13° 48° (NE) 21:41:44 145.980
UWE-3 23 Jan 21:37:37 21:39:53 14° 274° (W) 21:42:09 435.000/436.395/437.385
SPROUT 23 Jan 21:39:53 21:40:02 10° 46° (NE) 21:40:10 437.525
ESTCUBE 1 23 Jan 21:40:37 21:44:24 26° 58° (ENE) 21:48:11 437.505/2401.250
ANTELSAT 23 Jan 21:40:40 21:43:43 18° 88° (E) 21:46:48 437.575/2403.000
YUBILEINY 23 Jan 21:43:24 21:48:01 15° 27° (NNE) 21:52:36 435.215
AAUSAT CUBESAT 2 23 Jan 21:43:28 21:44:25 11° 278° (W) 21:45:22 437.432
ZACube-1 23 Jan 21:46:59 21:49:47 17° 272° (W) 21:52:38 437.345
DX 1 23 Jan 21:57:47 21:59:11 11° 46° (NE) 22:00:36 434.975-435.025
BEESAT 3 23 Jan 22:06:49 22:10:32 35° 26° (NNE) 22:14:15 437.485
CUBEBUG 1 23 Jan 22:11:51 22:15:39 29° 61° (ENE) 22:19:27 437.445
AIST 2 23 Jan 22:13:58 22:17:42 30° 341° (NNW) 22:21:29 435.215
Oscar 11 23 Jan 22:17:40 22:19:21 12° 277° (W) 22:21:01 145.826/435.025
GONETS M04 23 Jan 22:22:59 22:30:39 33° 306° (NW) 22:38:25
DELFI C3 23 Jan 22:24:04 22:27:06 20° 270° (W) 22:30:09 145.870
Cosmos 2504 23 Jan 22:31:37 22:34:03 12° 27° (NNE) 22:36:26 435.465 / 435.565
Cosmos 2499 23 Jan 22:32:43 22:38:42 23° 311° (NW) 22:44:25 435.465 / 435.565
STRAND 1 23 Jan 22:36:52 22:39:42 15° 315° (NW) 22:42:31 437.568
AISAT 23 Jan 22:38:12 22:42:13 35° 63° (ENE) 22:46:15 437.250
BY70-1 23 Jan 22:43:26 22:46:36 55° 259° (W) 22:49:55 436.1900
UNISAT 6 23 Jan 22:48:06 22:52:31 63° 102° (ESE) 22:57:01 437.425
PRISM 23 Jan 22:50:25 22:54:27 52° 292° (WNW) 22:58:25 437.425
ISS 23 Jan 22:54:44 22:57:29 25° 159° (SSE) 23:00:14 145.825
HUMSAT D 23 Jan 22:59:37 23:02:25 17° 272° (W) 23:05:14 437.325/437.525
BEESAT 2 23 Jan 23:00:00 23:03:54 43° 30° (NNE) 23:07:47 435.950
TIGRISAT 23 Jan 23:00:14 23:04:40 74° 103° (ESE) 23:09:12 435.000
50 SAT 23 Jan 23:04:57 23:08:17 37° 66° (ENE) 23:11:37 437.505
JAS-2 23 Jan 23:07:24 23:14:16 47° 97° (E) 23:21:39 435.910
VELOX 1 23 Jan 23:10:54 23:15:17 60° 69° (ENE) 23:19:40 145.980
SPROUT 23 Jan 23:10:56 23:14:59 46° 66° (ENE) 23:19:04 437.525
ESTCUBE 1 23 Jan 23:16:27 23:20:56 59° 258° (WSW) 23:25:28 437.505/2401.250
ANTELSAT 23 Jan 23:16:31 23:20:58 78° 288° (WNW) 23:25:30 437.575/2403.000
UKube-1 23 Jan 23:21:55 23:25:50 34° 62° (ENE) 23:29:46 .
PCSat 23 Jan 23:22:06 23:24:52 14° 104° (ESE) 23:27:37 145.827
QB50P1 23 Jan 23:28:30 23:31:48 22° 91° (E) 23:35:06 145.935-145.965
DX 1 23 Jan 23:30:14 23:34:28 50° 66° (ENE) 23:38:42 434.975-435.025
POLYITAN 1 23 Jan 23:33:49 23:37:18 24° 92° (E) 23:40:47 437.675
QB50P2 23 Jan 23:35:10 23:38:45 26° 93° (E) 23:42:20 145.880/145.840
RS-15 23 Jan 23:38:54 23:50:23 55° 118° (ESE) 00:02:13 29.354- 29.394
YUBILEINY 23 Jan 23:40:13 23:48:17 37° 57° (ENE) 23:56:15 435.215
BEESAT 3 23 Jan 23:44:26 23:48:25 65° 228° (SW) 23:52:23 437.485
CUBEBUG 1 23 Jan 23:47:32 23:51:48 47° 261° (W) 23:56:03 437.445
BEESAT 23 Jan 23:48:04 23:49:12 11° 42° (NE) 23:50:19 436.000
SWISSCUBE 23 Jan 23:49:25 23:51:09 12° 43° (NE) 23:52:53 437.505
AIST 2 23 Jan 23:53:46 23:57:15 24° 5° (N) 00:00:45 435.215
POPSAT HIP 1 23 Jan 23:55:29 23:59:24 35° 97° (E) 00:03:18 437.405
DUCHIFAT 1 24 Jan 00:01:20 00:05:13 35° 96° (E) 00:09:06 145.980
NANOSAT C BR1 24 Jan 00:08:54 00:12:57 44° 99° (E) 00:17:00 145.865
AIST 1 24 Jan 00:12:53 00:17:02 46° 71° (ENE) 00:21:08
AISAT 24 Jan 00:14:29 00:18:39 39° 262° (W) 00:22:51 437.250
BUGSAT 1 24 Jan 00:20:16 00:23:30 23° 92° (E) 00:26:44 437.445
Cosmos 2504 24 Jan 00:23:54 00:30:33 32° 57° (ENE) 00:36:56 435.465 / 435.565
TISAT 1 24 Jan 00:25:03 00:29:01 44° 66° (ENE) 00:32:59 437.305
UNISAT 6 24 Jan 00:25:23 00:28:57 24° 302° (WNW) 00:32:33 437.425
GONETS M04 24 Jan 00:27:10 00:31:13 14° 337° (NNW) 00:35:17
PRISM 24 Jan 00:27:48 00:28:51 11° 313° (NW) 00:29:56 437.425
ISS 24 Jan 00:30:26 00:33:32 40° 179° (S) 00:36:37 145.825
TIGRISAT 24 Jan 00:37:39 00:40:58 21° 304° (WNW) 00:44:19 435.000
BEESAT 2 24 Jan 00:37:52 00:41:47 47° 231° (SW) 00:45:40 435.950
50 SAT 24 Jan 00:38:33 00:41:36 25° 266° (W) 00:44:39 437.505
Cosmos 2491 24 Jan 00:42:26 00:49:15 27° 76° (ENE) 00:56:05 435.465 / 435.565
MOZHAYETS 4 24 Jan 00:46:07 00:47:06 11° 44° (NE) 00:48:05
SPROUT 24 Jan 00:47:27 00:51:07 27° 266° (W) 00:54:47 437.525
VELOX 1 24 Jan 00:48:35 00:52:06 23° 269° (W) 00:55:39 145.980
ITUPSAT 1 24 Jan 00:50:11 00:54:06 26° 56° (NE) 00:58:01 437.325
JAS-2 24 Jan 00:52:36 00:59:26 56° 296° (WNW) 01:06:53 435.910
ANTELSAT 24 Jan 00:54:21 00:57:03 16° 308° (NW) 00:59:48 437.575/2403.000
UKube-1 24 Jan 00:57:48 01:01:51 39° 262° (W) 01:05:56 .
PCSat 24 Jan 01:01:54 01:07:15 62° 125° (SE) 01:12:37 145.827
QB50P1 24 Jan 01:03:46 01:07:56 58° 291° (WNW) 01:12:05 145.935-145.965
DX 1 24 Jan 01:07:12 01:10:54 26° 266° (W) 01:14:37 434.975-435.025
POLYITAN 1 24 Jan 01:09:15 01:13:23 52° 292° (WNW) 01:17:31 437.675
QB50P2 24 Jan 01:10:42 01:14:47 48° 293° (WNW) 01:18:52 145.880/145.840
BEESAT 24 Jan 01:21:23 01:25:50 41° 63° (ENE) 01:30:21 436.000
SWISSCUBE 24 Jan 01:23:20 01:27:53 46° 65° (ENE) 01:32:29 437.505
BEESAT 3 24 Jan 01:23:38 01:25:18 12° 247° (WSW) 01:26:58 437.485
POPSAT HIP 1 24 Jan 01:31:20 01:35:12 36° 296° (WNW) 01:39:04 437.405
Oscar 19 24 Jan 01:31:44 01:36:28 34° 95° (E) 01:41:09 437.125/150
AIST 2 24 Jan 01:32:37 01:36:40 41° 28° (NNE) 01:40:43 435.215
DUCHIFAT 1 24 Jan 01:37:04 01:40:55 35° 296° (WNW) 01:44:45 145.980
YUBILEINY 24 Jan 01:37:10 01:46:01 77° 263° (W) 01:54:47 435.215
NANOSAT C BR1 24 Jan 01:44:54 01:48:33 29° 299° (WNW) 01:52:13 145.865
M-CUBED/EXP-1 PRIME 24 Jan 01:47:15 01:50:06 19° 51° (NE) 01:52:51 437.505
RS-15 24 Jan 01:50:29 02:02:42 75° 327° (NNW) 02:15:10 29.354- 29.394
AIST 1 24 Jan 01:50:53 01:54:26 26° 272° (W) 01:57:57
BUGSAT 1 24 Jan 01:55:13 01:59:10 52° 291° (WNW) 02:03:06 437.445
TISAT 1 24 Jan 02:01:13 02:04:49 28° 266° (W) 02:08:27 437.305
CUSAT 1 24 Jan 02:03:10 02:08:15 27° 80° (E) 02:14:10 437.405
ISS 24 Jan 02:06:46 02:09:36 28° 199° (SSW) 02:12:26 145.825
Cosmos 2504 24 Jan 02:17:17 02:24:46 74° 263° (W) 02:31:54 435.465 / 435.565
Gurwin Techsat 1B 24 Jan 02:17:34 02:22:43 46° 99° (E) 02:27:49 435.225
MOZHAYETS 4 24 Jan 02:18:50 02:23:11 43° 65° (ENE) 02:27:35
AUBIESAT-1 24 Jan 02:19:46 02:23:10 27° 55° (NE) 02:26:21 437.475
ITAMSAT 1 24 Jan 02:24:23 02:27:16 15° 84° (E) 02:30:09 435.822/435.867
ITUPSAT 1 24 Jan 02:26:50 02:31:35 67° 256° (WSW) 02:36:23 437.325
KKS-1 24 Jan 02:30:14 02:33:50 25° 57° (ENE) 02:37:26 437.445
GONETS M04 24 Jan 02:30:47 02:33:28 11° 12° (NNE) 02:36:09
Cosmos 2491 24 Jan 02:36:15 02:44:58 87° 101° (ESE) 02:53:47 435.465 / 435.565
JAS-2 24 Jan 02:38:33 02:43:17 20° 318° (NW) 02:48:18 435.910
QB50P1 24 Jan 02:41:14 02:42:54 12° 311° (NW) 02:44:33 145.935-145.965
AO-7 24 Jan 02:42:06 02:48:05 21° 84° (E) 02:54:00 29.400- 29.500
PCSat 24 Jan 02:45:44 02:50:55 43° 328° (NNW) 02:56:08 145.827
POLYITAN 1 24 Jan 02:47:03 02:48:18 11° 312° (NW) 02:49:34 437.675
QB50P2 24 Jan 02:48:52 02:49:40 10° 313° (NW) 02:50:27 145.880/145.840
BEESAT 24 Jan 02:59:18 03:03:42 37° 263° (W) 03:08:10 436.000
SWISSCUBE 24 Jan 03:01:33 03:05:51 33° 265° (W) 03:10:11 437.505
Oscar 19 24 Jan 03:11:00 03:16:00 49° 296° (WNW) 03:20:57 437.125/150
AIST 2 24 Jan 03:11:09 03:15:20 56° 229° (SW) 03:19:29 435.215
STARS 24 Jan 03:11:53 03:15:36 28° 59° (ENE) 03:19:21 437.465
CUBESAT XI-V 24 Jan 03:15:43 03:19:52 31° 61° (ENE) 03:24:02 437.345
M-CUBED/EXP-1 PRIME 24 Jan 03:20:08 03:24:16 77° 247° (WSW) 03:28:07 437.505
BUGSAT 1 24 Jan 03:32:57 03:33:40 10° 312° (NW) 03:34:25 437.445
DANDE 24 Jan 03:33:23 03:37:43 34° 86° (E) 03:43:19 436.750
YUBILEINY 24 Jan 03:35:00 03:41:27 23° 287° (WNW) 03:47:51 435.215
CUSAT 1 24 Jan 03:43:07 03:49:16 84° 286° (WNW) 03:56:54 437.405
AUBIESAT-1 24 Jan 03:53:35 03:57:29 45° 253° (WSW) 04:01:08 437.475
MOZHAYETS 4 24 Jan 03:56:20 04:00:29 33° 265° (W) 04:04:42
Gurwin Techsat 1B 24 Jan 03:57:42 04:02:39 39° 299° (WNW) 04:07:34 435.225
ITAMSAT 1 24 Jan 04:02:27 04:07:41 73° 105° (ESE) 04:12:55 435.822/435.867
RS-15 24 Jan 04:05:00 04:17:07 57° 359° (N) 04:29:16 29.354- 29.394
KKS-1 24 Jan 04:05:42 04:10:05 61° 257° (WSW) 04:14:31 437.445
ITUPSAT 1 24 Jan 04:08:29 04:10:24 12° 277° (W) 04:12:17 437.325
Cosmos 2504 24 Jan 04:11:57 04:16:48 19° 287° (WNW) 04:21:32 435.465 / 435.565
BRITE-PL 24 Jan 04:19:15 04:22:20 16° 83° (E) 04:25:15 437.365/2234.400
Cosmos 2499 24 Jan 04:25:15 04:30:34 21° 48° (NE) 04:35:46 435.465 / 435.565
GONETS M04 24 Jan 04:27:51 04:34:45 24° 45° (NE) 04:41:38
PCSat 24 Jan 04:31:05 04:35:36 26° 353° (N) 04:40:08 145.827
AO-7 24 Jan 04:34:03 04:42:28 71° 108° (ESE) 04:50:47 29.400- 29.500
Cosmos 2491 24 Jan 04:35:23 04:43:01 32° 306° (NW) 04:50:44 435.465 / 435.565
STARS 24 Jan 04:47:31 04:51:47 50° 259° (W) 04:56:04 437.465
AIST 2 24 Jan 04:51:47 04:52:57 11° 250° (WSW) 04:54:05 435.215
Oscar 19 24 Jan 04:51:47 04:54:15 14° 317° (NW) 04:56:42 437.125/150
CUBESAT XI-V 24 Jan 04:52:31 04:57:06 50° 261° (W) 05:01:44 437.345
M-CUBED/EXP-1 PRIME 24 Jan 04:57:45 04:59:19 12° 266° (W) 05:00:50 437.505
HORYU 2 24 Jan 04:59:20 05:02:03 16° 87° (E) 05:04:44 437.375
STRAND 1 24 Jan 05:03:30 05:07:13 21° 51° (NE) 05:10:56 437.568
O/OREOS (USA 219) 24 Jan 05:11:26 05:14:00 15° 100° (E) 05:16:34 437.305
DANDE 24 Jan 05:15:23 05:20:10 51° 295° (WNW) 05:26:33 436.750
CUSAT 1 24 Jan 05:26:57 05:32:28 28° 311° (NW) 05:38:50 437.405
GOMX 1 24 Jan 05:39:29 05:43:26 30° 93° (E) 05:47:13 467.674
Gurwin Techsat 1B 24 Jan 05:39:35 05:41:19 12° 321° (NW) 05:43:03 435.225
ITAMSAT 1 24 Jan 05:42:28 05:46:46 27° 306° (NW) 05:51:03 435.822/435.867
CUTE-I 24 Jan 05:43:12 05:46:54 19° 87° (E) 05:50:36 437.470
KKS-1 24 Jan 05:47:02 05:47:36 10° 277° (W) 05:48:10 437.445
BRITE-PL 24 Jan 05:56:40 06:01:41 90° 286° (WNW) 06:06:15 437.365/2234.400
DOVE 4 24 Jan 05:57:35 06:00:42 20° 89° (E) 06:03:45 437.250
PCSat 24 Jan 06:15:45 06:20:33 30° 19° (NNE) 06:25:20 145.827
Cosmos 2499 24 Jan 06:18:02 06:25:16 71° 74° (ENE) 06:32:18 435.465 / 435.565
RS-15 24 Jan 06:19:11 06:31:40 72° 31° (NNE) 06:43:52 29.354- 29.394
NOAA 15 24 Jan 06:21:03 06:25:54 34° 95° (E) 06:30:44 137.62
GONETS M04 24 Jan 06:24:42 06:33:33 68° 73° (ENE) 06:42:23
Cubesat XI-IV 24 Jan 06:27:07 06:32:05 37° 96° (E) 06:37:01 437.490
AO-7 24 Jan 06:27:11 06:34:55 43° 311° (NW) 06:42:37 29.400- 29.500
HORYU 2 24 Jan 06:34:45 06:39:15 89° 287° (WNW) 06:43:44 437.375
Cosmos 2491 24 Jan 06:39:40 06:43:36 13° 337° (NNW) 06:47:33 435.465 / 435.565
STRAND 1 24 Jan 06:40:39 06:45:46 86° 72° (ENE) 06:50:56 437.568
LilacSat-2 24 Jan 06:43:42 06:47:32 55° 101° (E) 06:51:21 437.200
O/OREOS (USA 219) 24 Jan 06:48:14 06:52:43 85° 122° (ESE) 06:57:14 437.305
CINEMA 3 24 Jan 06:55:25 06:58:30 19° 90° (E) 07:01:38 145.822/145.860
DANDE 24 Jan 07:01:27 07:04:52 16° 323° (NW) 07:08:49 436.750
CUTE 1.7 + AOD 2 24 Jan 07:03:22 07:05:53 15° 86° (E) 07:08:23 437.475
NOAA 18 24 Jan 07:05:37 07:10:47 41° 98° (E) 07:15:56 137.9125
CUSAT 1 24 Jan 07:14:42 07:17:26 12° 338° (NNW) 07:20:17 437.405
GOMX 1 24 Jan 07:17:29 07:21:43 42° 295° (WNW) 07:25:44 467.674
CUTE-I 24 Jan 07:22:21 07:27:44 88° 107° (ESE) 07:33:06 437.470
CUBEBUG 2 24 Jan 07:22:49 07:24:13 11° 83° (E) 07:25:37 437.445
HO-68 24 Jan 07:26:42 07:33:00 32° 92° (E) 07:39:15 435.675
CANX-2 24 Jan 07:32:42 07:36:30 29° 93° (E) 07:40:15 2200.000
COMPASS 1 24 Jan 07:32:54 07:35:06 14° 85° (E) 07:37:17 437.405
DOVE 4 24 Jan 07:34:41 07:38:51 61° 290° (WNW) 07:42:56 437.250
SEEDS 24 Jan 07:35:05 07:38:16 20° 89° (E) 07:41:26 437.485
BRITE-PL 24 Jan 07:35:57 07:39:29 20° 308° (NW) 07:42:51 437.365/2234.400
AAUSAT CUBESAT 2 24 Jan 07:40:00 07:41:54 13° 84° (E) 07:43:46 437.432
UWE-3 24 Jan 07:42:02 07:43:37 12° 83° (E) 07:45:13 435.000/436.395/437.385
JAS-2 24 Jan 07:47:01 07:50:10 15° 34° (NE) 07:53:29 435.910
SO-50 24 Jan 07:49:16 07:53:42 42° 126° (SE) 07:58:04 436.795
PCSat 24 Jan 07:59:22 08:04:49 70° 43° (NE) 08:10:15 145.827
NOAA 15 24 Jan 08:00:45 08:05:55 52° 296° (WNW) 08:11:03 137.62
